,,,PA_Meas_PMT16A,,PR_Meas_QMR101_102,,RH_Meas_QMH101,,SR_Meas_QMS101,,TA_Meas_QMH101,,GenWind,,GenWind,
date,time,status,PA,status,PR,status,RH,status,SR,status,TA,status,DirAvg,status,SpdAvg,
2014-01-10, 00:00:04,VALID,1010.99,VALID,0,VALID,104,VALID,0,VALID,24.1635,VALID,232,VALID,0,
2014-01-10, 00:01:04,VALID,1010.97,VALID,0,VALID,104,VALID,0,VALID,24.1635,VALID,232,VALID,0,
2014-01-10, 00:02:04,VALID,1010.96,VALID,0,VALID,104,VALID,0,VALID,24.1227,VALID,232,VALID,0,
2014-01-10, 00:03:04,VALID,1010.94,VALID,0,VALID,104,VALID,0,VALID,24.1227,VALID,232,VALID,0,
2014-01-10, 00:04:04,VALID,1010.94,VALID,0,VALID,104,VALID,0.112112,VALID,24.1209,VALID,232,VALID,0,
2014-01-10, 00:05:04,VALID,1010.91,VALID,0,VALID,104,VALID,0,VALID,24.1422,VALID,232,VALID,0,
2014-01-10, 00:06:04,VALID,1010.91,VALID,0,VALID,104,VALID,0,VALID,24.1209,VALID,232,VALID,0,
2014-01-10, 00:07:04,VALID,1010.86,VALID,0,VALID,104,VALID,0,VALID,24.1227,VALID,232,VALID,0,
2014-01-10, 00:08:04,VALID,1010.83,VALID,0,VALID,104,VALID,0,VALID,24.1032,VALID,232,VALID,0,
2014-01-10, 00:09:04,VALID,1010.84,VALID,0,VALID,104,VALID,0,VALID,24.1032,VALID,232,VALID,0,
2014-01-10, 00:10:04,VALID,1010.82,VALID,0,VALID,104,VALID,0.112112,VALID,24.0837,VALID,232,VALID,0,
2014-01-10, 00:11:04,VALID,1010.79,VALID,0,VALID,104,VALID,0.112112,VALID,24.0624,VALID,232,VALID,0,
2014-01-10, 00:12:04,VALID,1010.77,VALID,0,VALID,104,VALID,0,VALID,24.0643,VALID,232,VALID,0,
2014-01-10, 00:13:04,VALID,1010.77,VALID,0,VALID,104,VALID,0,VALID,24.0429,VALID,232,VALID,0,
2014-01-10, 00:14:04,VALID,1010.79,VALID,0,VALID,104,VALID,0,VALID,24.0837,VALID,232,VALID,0,
2014-01-10, 00:15:04,VALID,1010.75,VALID,0,VALID,104,VALID,0,VALID,24.0624,VALID,231,VALID,0,
2014-01-10, 00:16:04,VALID,1010.7,VALID,0,VALID,104,VALID,0,VALID,24.0624,VALID,232,VALID,0,
2014-01-10, 00:17:04,VALID,1010.71,VALID,0,VALID,104,VALID,0,VALID,24.0429,VALID,232,VALID,0,
2014-01-10, 00:18:04,VALID,1010.7,VALID,0,VALID,104,VALID,0.112112,VALID,24.0643,VALID,232,VALID,0,
2014-01-10, 00:19:04,VALID,1010.69,VALID,0,VALID,104,VALID,0,VALID,24.0429,VALID,232,VALID,0,
2014-01-10, 00:20:04,VALID,1010.71,VALID,0,VALID,104,VALID,0.112112,VALID,24.0643,VALID,232,VALID,0,
2014-01-10, 00:21:04,VALID,1010.64,VALID,0,VALID,104,VALID,0.112112,VALID,24.0429,VALID,232,VALID,0,
2014-01-10, 00:22:04,VALID,1010.62,VALID,0,VALID,104,VALID,0.112112,VALID,24.0448,VALID,232,VALID,0,
2014-01-10, 00:23:04,VALID,1010.59,VALID,0,VALID,104,VALID,0.112112,VALID,24.0235,VALID,232,VALID,0,
2014-01-10, 00:24:04,VALID,1010.59,VALID,0,VALID,104,VALID,0,VALID,24.0253,VALID,232,VALID,0,
2014-01-10, 00:25:04,VALID,1010.57,VALID,0,VALID,104,VALID,0.112112,VALID,23.9845,VALID,232,VALID,0,
2014-01-10, 00:26:04,VALID,1010.56,VALID,0,VALID,104,VALID,0.112112,VALID,23.9845,VALID,232,VALID,0,
2014-01-10, 00:27:04,VALID,1010.54,VALID,0,VALID,104,VALID,0.112112,VALID,23.9863,VALID,232,VALID,0,
2014-01-10, 00:28:04,VALID,1010.5,VALID,0,VALID,104,VALID,0,VALID,23.9668,VALID,232,VALID,0,
2014-01-10, 00:29:04,VALID,1010.51,VALID,0,VALID,104,VALID,0.112112,VALID,23.965,VALID,232,VALID,0,
2014-01-10, 00:30:04,VALID,1010.47,VALID,0,VALID,104,VALID,0.112112,VALID,23.965,VALID,232,VALID,0,
2014-01-10, 00:31:04,VALID,1010.48,VALID,0,VALID,104,VALID,0,VALID,23.9668,VALID,232,VALID,0,
2014-01-10, 00:32:04,VALID,1010.48,VALID,0,VALID,104,VALID,0,VALID,23.9455,VALID,232,VALID,0,
2014-01-10, 00:33:04,VALID,1010.44,VALID,0,VALID,104,VALID,0.112112,VALID,23.9473,VALID,232,VALID,0,
2014-01-10, 00:34:04,VALID,1010.4,VALID,0,VALID,104,VALID,0,VALID,23.926,VALID,232,VALID,0,
2014-01-10, 00:35:04,VALID,1010.39,VALID,0,VALID,104,VALID,0,VALID,23.9473,VALID,232,VALID,0,
2014-01-10, 00:36:04,VALID,1010.38,VALID,0,VALID,104,VALID,0.112112,VALID,23.9278,VALID,232,VALID,0,
2014-01-10, 00:37:04,VALID,1010.39,VALID,0,VALID,104,VALID,0.112112,VALID,23.9278,VALID,232,VALID,0,
2014-01-10, 00:38:04,VALID,1010.34,VALID,0,VALID,104,VALID,0.112112,VALID,23.9278,VALID,232,VALID,0,
2014-01-10, 00:39:04,VALID,1010.35,VALID,0,VALID,104,VALID,0.112112,VALID,23.926,VALID,232,VALID,0,
2014-01-10, 00:40:04,VALID,1010.33,VALID,0,VALID,104,VALID,0.112112,VALID,23.8871,VALID,232,VALID,0,
2014-01-10, 00:41:04,VALID,1010.28,VALID,0,VALID,104,VALID,0,VALID,23.9278,VALID,231,VALID,0,
2014-01-10, 00:42:04,VALID,1010.27,VALID,0,VALID,104,VALID,0.112112,VALID,23.8871,VALID,232,VALID,0,
2014-01-10, 00:43:04,VALID,1010.25,VALID,0,VALID,104,VALID,0,VALID,23.8871,VALID,232,VALID,0,
2014-01-10, 00:44:04,VALID,1010.22,VALID,0,VALID,104,VALID,0.112112,VALID,23.9278,VALID,232,VALID,0,
2014-01-10, 00:45:04,VALID,1010.23,VALID,0,VALID,104,VALID,0,VALID,23.8676,VALID,232,VALID,0,
2014-01-10, 00:46:04,VALID,1010.2,VALID,0,VALID,104,VALID,0,VALID,23.8286,VALID,232,VALID,0,
2014-01-10, 00:47:04,VALID,1010.16,VALID,0,VALID,104,VALID,0.112112,VALID,23.8091,VALID,232,VALID,0,
2014-01-10, 00:48:04,VALID,1010.14,VALID,0,VALID,104,VALID,0.112112,VALID,23.7896,VALID,232,VALID,0,
2014-01-10, 00:49:04,VALID,1010.11,VALID,0,VALID,104,VALID,0,VALID,23.7507,VALID,232,VALID,0,
2014-01-10, 00:50:04,VALID,1010.06,VALID,0,VALID,104,VALID,0,VALID,23.7312,VALID,232,VALID,0,
2014-01-10, 00:51:04,VALID,1010.04,VALID,0,VALID,104,VALID,0.112112,VALID,23.7312,VALID,232,VALID,0,
2014-01-10, 00:52:04,VALID,1010.05,VALID,0,VALID,104,VALID,0.112112,VALID,23.7312,VALID,232,VALID,0,
2014-01-10, 00:53:04,VALID,1009.99,VALID,0,VALID,104,VALID,0.112112,VALID,23.733,VALID,232,VALID,0,
2014-01-10, 00:54:04,VALID,1010.01,VALID,0,VALID,104,VALID,0.112112,VALID,23.733,VALID,232,VALID,0,
2014-01-10, 00:55:04,VALID,1009.98,VALID,0,VALID,104,VALID,0.112112,VALID,23.7135,VALID,232,VALID,0,
2014-01-10, 00:56:04,VALID,1009.92,VALID,0,VALID,104,VALID,0.112112,VALID,23.6922,VALID,231,VALID,0,
2014-01-10, 00:57:04,VALID,1009.87,VALID,0,VALID,104,VALID,0.112112,VALID,23.7507,VALID,231,VALID,0,
2014-01-10, 00:58:04,VALID,1009.88,VALID,0,VALID,104,VALID,0.112112,VALID,23.7896,VALID,232,VALID,0,
2014-01-10, 00:59:04,VALID,1009.84,VALID,0,VALID,104,VALID,0.112112,VALID,23.8091,VALID,232,VALID,0,
2014-01-10, 01:00:04,VALID,1009.83,VALID,0,VALID,104,VALID,0.112112,VALID,23.8286,VALID,232,VALID,0,
2014-01-10, 01:01:04,VALID,1009.82,VALID,0,VALID,104,VALID,0.112112,VALID,23.8091,VALID,232,VALID,0,
2014-01-10, 01:02:04,VALID,1009.83,VALID,0,VALID,104,VALID,0,VALID,23.8694,VALID,231,VALID,0,
2014-01-10, 01:03:04,VALID,1009.81,VALID,0,VALID,104,VALID,0.112112,VALID,23.8481,VALID,232,VALID,0,
2014-01-10, 01:04:04,VALID,1009.82,VALID,0,VALID,104,VALID,0,VALID,23.8481,VALID,232,VALID,0,
2014-01-10, 01:05:04,VALID,1009.83,VALID,0,VALID,104,VALID,0.112112,VALID,23.8694,VALID,232,VALID,0,
2014-01-10, 01:06:04,VALID,1009.81,VALID,0,VALID,104,VALID,0.112112,VALID,23.8481,VALID,231,VALID,0,
2014-01-10, 01:07:04,VALID,1009.86,VALID,0,VALID,104,VALID,0.112112,VALID,23.8481,VALID,232,VALID,0,
2014-01-10, 01:08:04,VALID,1009.79,VALID,0,VALID,104,VALID,0,VALID,23.8091,VALID,231,VALID,0,
2014-01-10, 01:09:04,VALID,1009.82,VALID,0,VALID,104,VALID,0.112112,VALID,23.8499,VALID,232,VALID,0,
2014-01-10, 01:10:04,VALID,1009.84,VALID,0,VALID,104,VALID,0.112112,VALID,23.8091,VALID,232,VALID,0,
2014-01-10, 01:11:04,VALID,1009.84,VALID,0,VALID,104,VALID,0,VALID,23.8304,VALID,232,VALID,0,
2014-01-10, 01:12:04,VALID,1009.83,VALID,0,VALID,104,VALID,0.112112,VALID,23.8304,VALID,232,VALID,0,
2014-01-10, 01:13:04,VALID,1009.81,VALID,0,VALID,104,VALID,0,VALID,23.8109,VALID,232,VALID,0,
2014-01-10, 01:14:04,VALID,1009.81,VALID,0,VALID,104,VALID,0,VALID,23.7914,VALID,232,VALID,0,
2014-01-10, 01:15:04,VALID,1009.79,VALID,0,VALID,104,VALID,0,VALID,23.772,VALID,232,VALID,0,
2014-01-10, 01:16:04,VALID,1009.78,VALID,0,VALID,104,VALID,0.112112,VALID,23.7701,VALID,232,VALID,0,
2014-01-10, 01:17:04,VALID,1009.78,VALID,0,VALID,104,VALID,0,VALID,23.772,VALID,231,VALID,0,
2014-01-10, 01:18:04,VALID,1009.77,VALID,0,VALID,104,VALID,0.112112,VALID,23.7525,VALID,232,VALID,0,
2014-01-10, 01:19:04,VALID,1009.74,VALID,0,VALID,104,VALID,0,VALID,23.7525,VALID,232,VALID,0,
2014-01-10, 01:20:04,VALID,1009.77,VALID,0,VALID,104,VALID,0,VALID,23.7312,VALID,232,VALID,0,
2014-01-10, 01:21:04,VALID,1009.71,VALID,0,VALID,104,VALID,0.112112,VALID,23.7117,VALID,233,VALID,0,
2014-01-10, 01:22:04,VALID,1009.69,VALID,0,VALID,104,VALID,0.112112,VALID,23.7135,VALID,232,VALID,0,
2014-01-10, 01:23:04,VALID,1009.64,VALID,0,VALID,104,VALID,0,VALID,23.6745,VALID,233,VALID,0,
2014-01-10, 01:24:04,VALID,1009.62,VALID,0,VALID,104,VALID,0,VALID,23.6745,VALID,232,VALID,0,
2014-01-10, 01:25:04,VALID,1009.61,VALID,0,VALID,104,VALID,0,VALID,23.655,VALID,232,VALID,0,
2014-01-10, 01:26:04,VALID,1009.62,VALID,0,VALID,104,VALID,0.112112,VALID,23.6143,VALID,231,VALID,0,
2014-01-10, 01:27:04,VALID,1009.58,VALID,0,VALID,104,VALID,0.112112,VALID,23.6356,VALID,232,VALID,0,
2014-01-10, 01:28:04,VALID,1009.6,VALID,0,VALID,104,VALID,0,VALID,23.6161,VALID,231,VALID,0,
2014-01-10, 01:29:04,VALID,1009.6,VALID,0,VALID,104,VALID,0.112112,VALID,23.5948,VALID,233,VALID,0,
2014-01-10, 01:30:04,VALID,1009.6,VALID,0,VALID,104,VALID,0,VALID,23.6161,VALID,231,VALID,0,
2014-01-10, 01:31:04,VALID,1009.62,VALID,0,VALID,104,VALID,0,VALID,23.6338,VALID,231,VALID,0,
2014-01-10, 01:32:04,VALID,1009.59,VALID,0,VALID,104,VALID,0,VALID,23.655,VALID,232,VALID,0,
2014-01-10, 01:33:04,VALID,1009.61,VALID,0,VALID,104,VALID,0.112112,VALID,23.6338,VALID,231,VALID,0,
2014-01-10, 01:34:04,VALID,1009.58,VALID,0,VALID,104,VALID,0.112112,VALID,23.655,VALID,231,VALID,0,
2014-01-10, 01:35:04,VALID,1009.56,VALID,0,VALID,104,VALID,0.112112,VALID,23.6338,VALID,232,VALID,0,
2014-01-10, 01:36:04,VALID,1009.57,VALID,0,VALID,104,VALID,0.112112,VALID,23.6143,VALID,232,VALID,0,
2014-01-10, 01:37:04,VALID,1009.55,VALID,0,VALID,104,VALID,0.112112,VALID,23.5966,VALID,232,VALID,0,
2014-01-10, 01:38:04,VALID,1009.54,VALID,0,VALID,104,VALID,0.112112,VALID,23.5771,VALID,232,VALID,0,
2014-01-10, 01:39:04,VALID,1009.54,VALID,0,VALID,104,VALID,0,VALID,23.5169,VALID,232,VALID,0,
2014-01-10, 01:40:04,VALID,1009.56,VALID,0,VALID,104,VALID,0,VALID,23.4992,VALID,232,VALID,0,
2014-01-10, 01:41:04,VALID,1009.54,VALID,0,VALID,104,VALID,0,VALID,23.4992,VALID,232,VALID,0,
2014-01-10, 01:42:04,VALID,1009.55,VALID,0,VALID,104,VALID,0.112112,VALID,23.4584,VALID,232,VALID,0,
2014-01-10, 01:43:04,VALID,1009.56,VALID,0,VALID,104,VALID,0,VALID,23.4779,VALID,233,VALID,0,
2014-01-10, 01:44:04,VALID,1009.54,VALID,0,VALID,104,VALID,0,VALID,23.4992,VALID,232,VALID,0,
2014-01-10, 01:45:04,VALID,1009.56,VALID,0,VALID,104,VALID,0,VALID,23.4974,VALID,232,VALID,0,
2014-01-10, 01:46:04,VALID,1009.55,VALID,0,VALID,104,VALID,0.112112,VALID,23.5169,VALID,231,VALID,0,
2014-01-10, 01:47:04,VALID,1009.54,VALID,0,VALID,104,VALID,0.112112,VALID,23.5558,VALID,232,VALID,0,
2014-01-10, 01:48:04,VALID,1009.54,VALID,0,VALID,104,VALID,0.112112,VALID,23.5966,VALID,232,VALID,0,
2014-01-10, 01:49:04,VALID,1009.52,VALID,0,VALID,104,VALID,0.112112,VALID,23.5948,VALID,232,VALID,0,
2014-01-10, 01:50:04,VALID,1009.48,VALID,0,VALID,104,VALID,0.112112,VALID,23.6356,VALID,231,VALID,0,
2014-01-10, 01:51:04,VALID,1009.45,VALID,0,VALID,104,VALID,0.112112,VALID,23.6143,VALID,232,VALID,0,
2014-01-10, 01:52:04,VALID,1009.42,VALID,0,VALID,104,VALID,0,VALID,23.6143,VALID,232,VALID,0,
2014-01-10, 01:53:04,VALID,1009.4,VALID,0,VALID,104,VALID,0.112112,VALID,23.6338,VALID,232,VALID,0,
2014-01-10, 01:54:04,VALID,1009.38,VALID,0,VALID,104,VALID,0.112112,VALID,23.6532,VALID,232,VALID,0,
2014-01-10, 01:55:04,VALID,1009.33,VALID,0,VALID,104,VALID,0.112112,VALID,23.655,VALID,232,VALID,0,
2014-01-10, 01:56:04,VALID,1009.29,VALID,0,VALID,104,VALID,0,VALID,23.6338,VALID,232,VALID,0,
2014-01-10, 01:57:04,VALID,1009.28,VALID,0,VALID,104,VALID,0.112112,VALID,23.655,VALID,232,VALID,0,
2014-01-10, 01:58:04,VALID,1009.24,VALID,0,VALID,104,VALID,0.112112,VALID,23.5948,VALID,232,VALID,0,
2014-01-10, 01:59:04,VALID,1009.25,VALID,0,VALID,104,VALID,0.112112,VALID,23.5558,VALID,232,VALID,0,
2014-01-10, 02:00:04,VALID,1009.22,VALID,0,VALID,104,VALID,0.112112,VALID,23.5169,VALID,232,VALID,0,
2014-01-10, 02:01:04,VALID,1009.21,VALID,0,VALID,104,VALID,0.112112,VALID,23.4974,VALID,232,VALID,0,
2014-01-10, 02:02:04,VALID,1009.2,VALID,0,VALID,104,VALID,0.112112,VALID,23.4797,VALID,232,VALID,0,
2014-01-10, 02:03:04,VALID,1009.19,VALID,0,VALID,104,VALID,0.112112,VALID,23.4407,VALID,232,VALID,0,
2014-01-10, 02:04:04,VALID,1009.16,VALID,0,VALID,104,VALID,0,VALID,23.4017,VALID,232,VALID,0,
2014-01-10, 02:05:04,VALID,1009.2,VALID,0,VALID,104,VALID,0,VALID,23.3628,VALID,232,VALID,0,
2014-01-10, 02:06:04,VALID,1009.16,VALID,0,VALID,104,VALID,0,VALID,23.3433,VALID,232,VALID,0,
2014-01-10, 02:07:04,VALID,1009.16,VALID,0,VALID,104,VALID,0,VALID,23.3628,VALID,232,VALID,0,
2014-01-10, 02:08:04,VALID,1009.13,VALID,0,VALID,104,VALID,0,VALID,23.4017,VALID,232,VALID,0,
2014-01-10, 02:09:04,VALID,1009.11,VALID,0,VALID,104,VALID,0,VALID,23.4407,VALID,232,VALID,0,
2014-01-10, 02:10:05,VALID,1009.09,VALID,0,VALID,104,VALID,0,VALID,23.4602,VALID,231,VALID,0,
2014-01-10, 02:11:05,VALID,1009.08,VALID,0,VALID,104,VALID,0,VALID,23.4992,VALID,232,VALID,0,
2014-01-10, 02:12:05,VALID,1009.09,VALID,0,VALID,104,VALID,0,VALID,23.5186,VALID,232,VALID,0,
2014-01-10, 02:13:05,VALID,1009.07,VALID,0,VALID,104,VALID,0,VALID,23.5204,VALID,231,VALID,0,
2014-01-10, 02:14:05,VALID,1009.07,VALID,0,VALID,104,VALID,0,VALID,23.4779,VALID,232,VALID,0,
2014-01-10, 02:15:05,VALID,1009.1,VALID,0,VALID,104,VALID,0,VALID,23.4602,VALID,232,VALID,0,
2014-01-10, 02:16:05,VALID,1009.09,VALID,0,VALID,104,VALID,0,VALID,23.4212,VALID,233,VALID,0,
2014-01-10, 02:17:05,VALID,1009.12,VALID,0,VALID,104,VALID,0.112112,VALID,23.4602,VALID,231,VALID,0,
2014-01-10, 02:18:05,VALID,1009.12,VALID,0,VALID,104,VALID,0,VALID,23.4992,VALID,232,VALID,0,
2014-01-10, 02:19:05,VALID,1009.13,VALID,0,VALID,104,VALID,0,VALID,23.5381,VALID,232,VALID,0,
2014-01-10, 02:20:05,VALID,1009.14,VALID,0,VALID,104,VALID,0,VALID,23.5576,VALID,232,VALID,0,
2014-01-10, 02:21:05,VALID,1009.16,VALID,0,VALID,104,VALID,0.112112,VALID,23.5169,VALID,232,VALID,0,
2014-01-10, 02:22:05,VALID,1009.2,VALID,0,VALID,104,VALID,0,VALID,23.5381,VALID,232,VALID,0,
2014-01-10, 02:23:05,VALID,1009.22,VALID,0,VALID,104,VALID,0,VALID,23.5381,VALID,232,VALID,0,
2014-01-10, 02:24:05,VALID,1009.22,VALID,0,VALID,104,VALID,0,VALID,23.5576,VALID,232,VALID,0,
2014-01-10, 02:25:05,VALID,1009.24,VALID,0,VALID,104,VALID,0,VALID,23.5558,VALID,232,VALID,0,
2014-01-10, 02:26:05,VALID,1009.26,VALID,0,VALID,104,VALID,0,VALID,23.5771,VALID,232,VALID,0,
2014-01-10, 02:27:05,VALID,1009.25,VALID,0,VALID,104,VALID,0,VALID,23.5576,VALID,232,VALID,0,
2014-01-10, 02:28:05,VALID,1009.26,VALID,0,VALID,104,VALID,0,VALID,23.5576,VALID,232,VALID,0,
2014-01-10, 02:29:05,VALID,1009.27,VALID,0,VALID,104,VALID,0,VALID,23.5363,VALID,231,VALID,0,
2014-01-10, 02:30:05,VALID,1009.22,VALID,0,VALID,104,VALID,0,VALID,23.5381,VALID,232,VALID,0,
2014-01-10, 02:31:05,VALID,1009.23,VALID,0,VALID,104,VALID,0,VALID,23.5381,VALID,232,VALID,0,
2014-01-10, 02:32:05,VALID,1009.17,VALID,0,VALID,104,VALID,0,VALID,23.5186,VALID,231,VALID,0,
2014-01-10, 02:33:05,VALID,1009.16,VALID,0,VALID,104,VALID,0,VALID,23.4992,VALID,231,VALID,0,
2014-01-10, 02:34:05,VALID,1009.13,VALID,0,VALID,104,VALID,0,VALID,23.4974,VALID,232,VALID,0,
2014-01-10, 02:35:05,VALID,1009.14,VALID,0,VALID,104,VALID,0,VALID,23.4992,VALID,231,VALID,0,
2014-01-10, 02:36:05,VALID,1009.14,VALID,0,VALID,104,VALID,0,VALID,23.4797,VALID,233,VALID,0,
2014-01-10, 02:37:05,VALID,1009.16,VALID,0,VALID,104,VALID,0,VALID,23.4584,VALID,231,VALID,0,
2014-01-10, 02:38:05,VALID,1009.17,VALID,0,VALID,104,VALID,0,VALID,23.4797,VALID,232,VALID,0,
2014-01-10, 02:39:05,VALID,1009.19,VALID,0,VALID,104,VALID,0,VALID,23.4602,VALID,232,VALID,0,
2014-01-10, 02:40:05,VALID,1009.2,VALID,0,VALID,104,VALID,0,VALID,23.4602,VALID,232,VALID,0,
2014-01-10, 02:41:05,VALID,1009.24,VALID,0,VALID,104,VALID,0,VALID,23.4602,VALID,232,VALID,0,
2014-01-10, 02:42:05,VALID,1009.22,VALID,0,VALID,104,VALID,0,VALID,23.4407,VALID,232,VALID,0,
2014-01-10, 02:43:05,VALID,1009.22,VALID,0,VALID,104,VALID,0,VALID,23.4602,VALID,232,VALID,0,
2014-01-10, 02:44:05,VALID,1009.2,VALID,0,VALID,104,VALID,0,VALID,23.4407,VALID,232,VALID,0,
2014-01-10, 02:45:05,VALID,1009.18,VALID,0,VALID,104,VALID,0,VALID,23.4212,VALID,231,VALID,0,
2014-01-10, 02:46:05,VALID,1009.17,VALID,0,VALID,104,VALID,0,VALID,23.4212,VALID,231,VALID,0,
2014-01-10, 02:47:05,VALID,1009.09,VALID,0,VALID,104,VALID,0,VALID,23.3805,VALID,233,VALID,0,
2014-01-10, 02:48:05,VALID,1009.09,VALID,0,VALID,104,VALID,0,VALID,23.3628,VALID,232,VALID,0,
2014-01-10, 02:49:05,VALID,1009.07,VALID,0,VALID,104,VALID,0,VALID,23.3628,VALID,231,VALID,0,
2014-01-10, 02:50:05,VALID,1009.09,VALID,0,VALID,104,VALID,0,VALID,23.3238,VALID,232,VALID,0,
2014-01-10, 02:51:05,VALID,1009.05,VALID,0,VALID,104,VALID,0,VALID,23.2831,VALID,231,VALID,0,
2014-01-10, 02:52:05,VALID,1009.08,VALID,0,VALID,104,VALID,0,VALID,23.2636,VALID,232,VALID,0,
2014-01-10, 02:53:05,VALID,1009.09,VALID,0,VALID,104,VALID,0,VALID,23.2848,VALID,232,VALID,0,
2014-01-10, 02:54:05,VALID,1009.1,VALID,0,VALID,104,VALID,0,VALID,23.3043,VALID,231,VALID,0,
2014-01-10, 02:55:05,VALID,1009.12,VALID,0,VALID,104,VALID,0.112112,VALID,23.3026,VALID,231,VALID,0,
2014-01-10, 02:56:05,VALID,1009.12,VALID,0,VALID,104,VALID,0,VALID,23.3238,VALID,231,VALID,0,
2014-01-10, 02:57:05,VALID,1009.13,VALID,0,VALID,104,VALID,0,VALID,23.3628,VALID,317,VALID,0.537891,
2014-01-10, 02:58:05,VALID,1009.13,VALID,0,VALID,104,VALID,0,VALID,23.3805,VALID,317,VALID,0,
2014-01-10, 02:59:05,VALID,1009.15,VALID,0,VALID,104,VALID,0,VALID,23.4212,VALID,317,VALID,0,
2014-01-10, 03:00:05,VALID,1009.13,VALID,0,VALID,104,VALID,0,VALID,23.4602,VALID,317,VALID,0,
2014-01-10, 03:01:05,VALID,1009.12,VALID,0,VALID,104,VALID,0,VALID,23.4779,VALID,317,VALID,0,
2014-01-10, 03:02:05,VALID,1009.11,VALID,0,VALID,104,VALID,0,VALID,23.4992,VALID,317,VALID,0,
2014-01-10, 03:03:05,VALID,1009.14,VALID,0,VALID,104,VALID,0,VALID,23.5186,VALID,317,VALID,0,
2014-01-10, 03:04:05,VALID,1009.13,VALID,0,VALID,104,VALID,0,VALID,23.5186,VALID,317,VALID,0,
2014-01-10, 03:05:05,VALID,1009.11,VALID,0,VALID,104,VALID,0,VALID,23.5594,VALID,317,VALID,0,
2014-01-10, 03:06:05,VALID,1009.09,VALID,0,VALID,104,VALID,0,VALID,23.5381,VALID,317,VALID,0,
2014-01-10, 03:07:05,VALID,1009.09,VALID,0,VALID,104,VALID,0,VALID,23.5381,VALID,317,VALID,0,
2014-01-10, 03:08:05,VALID,1009.11,VALID,0,VALID,104,VALID,0,VALID,23.5576,VALID,317,VALID,0,
2014-01-10, 03:09:05,VALID,1009.09,VALID,0,VALID,104,VALID,0,VALID,23.5399,VALID,317,VALID,0,
2014-01-10, 03:10:05,VALID,1009.13,VALID,0,VALID,104,VALID,0,VALID,23.5381,VALID,317,VALID,0,
2014-01-10, 03:11:05,VALID,1009.15,VALID,0,VALID,104,VALID,0,VALID,23.5381,VALID,317,VALID,0,
2014-01-10, 03:12:05,VALID,1009.16,VALID,0,VALID,104,VALID,0,VALID,23.5594,VALID,317,VALID,0,
2014-01-10, 03:13:05,VALID,1009.16,VALID,0,VALID,104,VALID,0,VALID,23.5771,VALID,317,VALID,0,
2014-01-10, 03:14:05,VALID,1009.16,VALID,0,VALID,104,VALID,0,VALID,23.5966,VALID,317,VALID,0,
2014-01-10, 03:15:05,VALID,1009.15,VALID,0,VALID,104,VALID,0,VALID,23.6161,VALID,317,VALID,0,
2014-01-10, 03:16:05,VALID,1009.11,VALID,0,VALID,104,VALID,0,VALID,23.6356,VALID,317,VALID,0,
2014-01-10, 03:17:05,VALID,1009.09,VALID,0,VALID,104,VALID,0,VALID,23.6356,VALID,317,VALID,0,
2014-01-10, 03:18:05,VALID,1009.05,VALID,0,VALID,104,VALID,0,VALID,23.6356,VALID,317,VALID,0,
2014-01-10, 03:19:05,VALID,1009.01,VALID,0,VALID,104,VALID,0,VALID,23.6161,VALID,317,VALID,0,
2014-01-10, 03:20:05,VALID,1009.01,VALID,0,VALID,104,VALID,0,VALID,23.6356,VALID,317,VALID,0,
2014-01-10, 03:21:05,VALID,1008.98,VALID,0,VALID,104,VALID,0,VALID,23.6356,VALID,317,VALID,0,
2014-01-10, 03:22:05,VALID,1008.97,VALID,0,VALID,104,VALID,0,VALID,23.6356,VALID,317,VALID,0,
2014-01-10, 03:23:05,VALID,1008.96,VALID,0,VALID,104,VALID,0,VALID,23.6356,VALID,317,VALID,0,
2014-01-10, 03:24:05,VALID,1008.97,VALID,0,VALID,104,VALID,0,VALID,23.6356,VALID,317,VALID,0,
2014-01-10, 03:25:05,VALID,1009,VALID,0,VALID,104,VALID,0,VALID,23.6161,VALID,317,VALID,0,
2014-01-10, 03:26:05,VALID,1009,VALID,0,VALID,104,VALID,0,VALID,23.6161,VALID,317,VALID,0.125,
2014-01-10, 03:27:05,VALID,1008.98,VALID,0,VALID,104,VALID,0,VALID,23.6356,VALID,317,VALID,0,
2014-01-10, 03:28:05,VALID,1008.99,VALID,0,VALID,104,VALID,0,VALID,23.6356,VALID,317,VALID,0,
2014-01-10, 03:29:05,VALID,1008.99,VALID,0,VALID,104,VALID,0,VALID,23.6763,VALID,317,VALID,0,
2014-01-10, 03:30:05,VALID,1008.96,VALID,0,VALID,104,VALID,0,VALID,23.6763,VALID,317,VALID,0,
2014-01-10, 03:31:05,VALID,1008.98,VALID,0,VALID,104,VALID,0,VALID,23.655,VALID,317,VALID,0,
2014-01-10, 03:32:05,VALID,1008.98,VALID,0,VALID,104,VALID,0,VALID,23.655,VALID,317,VALID,0,
2014-01-10, 03:33:05,VALID,1008.99,VALID,0,VALID,104,VALID,0,VALID,23.6745,VALID,317,VALID,0,
2014-01-10, 03:34:05,VALID,1009,VALID,0,VALID,104,VALID,0.112112,VALID,23.694,VALID,317,VALID,0,
2014-01-10, 03:35:05,VALID,1009.02,VALID,0,VALID,104,VALID,0,VALID,23.694,VALID,317,VALID,0,
2014-01-10, 03:36:05,VALID,1009.04,VALID,0,VALID,104,VALID,0.112112,VALID,23.6727,VALID,317,VALID,0,
2014-01-10, 03:37:05,VALID,1009.05,VALID,0,VALID,104,VALID,0.112112,VALID,23.6727,VALID,317,VALID,0,
2014-01-10, 03:38:05,VALID,1009.11,VALID,0,VALID,104,VALID,0,VALID,23.6727,VALID,317,VALID,0,
2014-01-10, 03:39:05,VALID,1009.1,VALID,0,VALID,104,VALID,0.112112,VALID,23.6745,VALID,317,VALID,0,
2014-01-10, 03:40:05,VALID,1009.16,VALID,0,VALID,104,VALID,0.112112,VALID,23.6727,VALID,317,VALID,0,
2014-01-10, 03:41:05,VALID,1009.14,VALID,0,VALID,104,VALID,0.112112,VALID,23.6727,VALID,317,VALID,0,
2014-01-10, 03:42:05,VALID,1009.15,VALID,0,VALID,104,VALID,0.112112,VALID,23.6532,VALID,317,VALID,0,
2014-01-10, 03:43:05,VALID,1009.15,VALID,0,VALID,104,VALID,0,VALID,23.694,VALID,317,VALID,0,
2014-01-10, 03:44:05,VALID,1009.15,VALID,0,VALID,104,VALID,0,VALID,23.6532,VALID,317,VALID,0,
2014-01-10, 03:45:05,VALID,1009.14,VALID,0,VALID,104,VALID,0,VALID,23.6727,VALID,317,VALID,0,
2014-01-10, 03:46:05,VALID,1009.11,VALID,0,VALID,104,VALID,0.112112,VALID,23.6727,VALID,317,VALID,0,
2014-01-10, 03:47:05,VALID,1009.07,VALID,0,VALID,104,VALID,0.112112,VALID,23.6727,VALID,317,VALID,0,
2014-01-10, 03:48:05,VALID,1009.09,VALID,0,VALID,104,VALID,0.112112,VALID,23.6727,VALID,317,VALID,0,
2014-01-10, 03:49:05,VALID,1009.09,VALID,0,VALID,104,VALID,0.112112,VALID,23.6532,VALID,317,VALID,0,
2014-01-10, 03:50:05,VALID,1009.09,VALID,0,VALID,104,VALID,0.112112,VALID,23.6532,VALID,317,VALID,0,
2014-01-10, 03:51:05,VALID,1009.13,VALID,0,VALID,104,VALID,0.112112,VALID,23.6532,VALID,317,VALID,0,
2014-01-10, 03:52:05,VALID,1009.1,VALID,0,VALID,104,VALID,0.112112,VALID,23.6338,VALID,317,VALID,0,
2014-01-10, 03:53:05,VALID,1009.11,VALID,0,VALID,104,VALID,0.112112,VALID,23.6338,VALID,317,VALID,0,
2014-01-10, 03:54:05,VALID,1009.08,VALID,0,VALID,104,VALID,0.112112,VALID,23.6338,VALID,317,VALID,0,
2014-01-10, 03:55:05,VALID,1009.07,VALID,0,VALID,104,VALID,0.112112,VALID,23.655,VALID,317,VALID,0,
2014-01-10, 03:56:05,VALID,1009.06,VALID,0,VALID,104,VALID,0.112112,VALID,23.6338,VALID,317,VALID,0,
2014-01-10, 03:57:05,VALID,1009.05,VALID,0,VALID,104,VALID,0,VALID,23.655,VALID,317,VALID,0,
2014-01-10, 03:58:05,VALID,1009.08,VALID,0,VALID,104,VALID,0.112112,VALID,23.6338,VALID,317,VALID,0,
2014-01-10, 03:59:05,VALID,1009.08,VALID,0,VALID,104,VALID,0.112112,VALID,23.6143,VALID,317,VALID,0,
2014-01-10, 04:00:05,VALID,1009.13,VALID,0,VALID,104,VALID,0.112112,VALID,23.5948,VALID,317,VALID,0,
2014-01-10, 04:01:05,VALID,1009.15,VALID,0,VALID,104,VALID,0.112112,VALID,23.5948,VALID,317,VALID,0,
2014-01-10, 04:02:05,VALID,1009.15,VALID,0,VALID,104,VALID,0.112112,VALID,23.5948,VALID,317,VALID,0,